[[{"header":{"parameterUnit":"m.s-1","parameterCategory":1,"la1":30.2991,"la2":30.254,"lo1":-89.0895,"lo2":-89.0444,"dy":0.0017,"dx":0.0017,"nx":28,"ny":28,"refTime":"2024-02-02T09:00:00:Z","depth":0,"parameterNumber":2,"parameterNumberName":"U-component_of_WINDS"},"data":[0,0,0,0,0,0,0,0,0,0,0,0,0,0,0,0,0,0,0,0,0,0,0,0,0,0,0,0,0,0,0,0,0,0,0,0,0,0,0,0,0,0,0,0,0,0,0,0,0,0,0,0,0,0,0,0,0,0,-9.2478,-9.2479,0,-9.2557,-9.2558,-9.2559,-9.2417,-9.2412,-9.2407,-9.2403,-9.2485,-9.2492,-9.2499,0,0,0,0,0,0,0,0,0,0,0,0,0,-9.2208,-9.2214,-9.2478,-9.2479,-9.248,-9.2557,-9.2558,-9.2559,-9.2418,-9.2412,-9.2406,-9.2401,-9.2483,-9.2491,-9.2499,0,0,0,0,0,0,0,0,0,0,0,0,0,-9.231,-9.2216,-9.2478,-9.2419,-9.2414,-9.2557,-9.2558,-9.256,-9.2419,-9.2412,-9.2404,-9.2398,-9.2481,-9.249,-9.25,-9.2705,0,0,-9.2531,-9.2535,0,0,0,0,0,0,0,0,-9.2305,-9.232,-9.2426,-9.2423,-9.2418,-9.247,-9.2493,-9.2609,-9.2421,-9.2417,-9.2403,-9.2394,-9.2486,-9.2495,-9.2526,-9.2709,-9.2713,-9.2532,-9.2538,-9.2542,-9.2545,0,0,0,0,0,0,0,-9.2298,-9.2316,-9.2509,-9.2428,-9.2423,-9.2389,-9.2396,-9.2515,-9.2491,-9.2417,-9.2407,-9.2418,-9.2483,-9.2517,-9.2527,-9.2714,-9.2531,-9.254,-9.2546,-9.255,-9.3072,-9.308,0,0,0,0,0,0,-9.2298,-9.2311,-9.2507,-9.2512,-9.2343,-9.24,-9.2407,-9.2461,-9.2489,-9.2487,-9.2424,-9.2411,-9.2503,-9.2515,-9.2529,-9.2772,-9.2542,-9.2551,-9.2557,-9.3065,-9.3074,-9.3083,0,0,0,0,0,0,-9.2292,-9.2316,-9.2504,-9.2409,-9.243,-9.2412,-9.2473,-9.2466,-9.2499,-9.2495,-9.249,-9.2463,-9.2498,-9.2515,-9.2663,-9.2773,-9.2556,-9.2565,-9.3055,-9.3067,-9.3078,-9.3259,0,0,0,0,0,0,-9.2285,-9.2315,-9.2392,-9.2412,-9.2436,-9.2635,-9.248,-9.2473,-9.2517,-9.2501,-9.253,-9.2528,-9.2494,-9.2649,-9.2673,-9.2782,-9.2573,-9.3045,-9.3061,-9.3075,-9.3243,-9.3275,-9.3303,0,0,0,0,0,-9.2276,-9.2439,-9.2396,-9.2421,-9.2531,-9.2642,-9.2656,-9.2613,-9.2526,-9.2604,-9.2601,-9.2527,-9.2758,-9.2665,-9.2691,-9.2805,-9.3038,-9.3056,-9.3073,-9.3229,-9.3269,-9.3302,0,0,0,0,0,0,-9.2431,-9.244,-9.2393,-9.2567,-9.2605,-9.2618,-9.2713,-9.2656,-9.2719,-9.2701,-9.2646,-9.2654,-9.2813,-9.2824,-9.2721,-9.3007,-9.2883,-9.2907,-9.2993,-9.3031,-9.306,-9.3053,-9.2581,0,0,0,0,0,-9.2486,-9.2575,-9.2578,-9.2732,-9.2753,-9.2731,-9.2778,-9.2742,-9.2779,-9.2794,-9.2802,-9.2842,-9.2923,-9.2978,-9.3052,-9.3245,-9.325,-9.3337,-9.3367,-9.3392,-9.3412,-9.3517,-9.3555,-9.3141,-9.3141,-9.314,0,0,-9.26,-9.2616,-9.2675,-9.2764,-9.2788,-9.2883,-9.2745,-9.285,-9.292,-9.281,-9.295,-9.2959,-9.2999,-9.3171,-9.3247,-9.3185,-9.3528,-9.3414,-9.3434,-9.3441,-9.3539,-9.3578,-9.3613,-9.3153,-9.3151,-9.3149,0,0,-9.2854,-9.2875,-9.3005,-9.3035,-9.3075,-9.306,-9.3092,-9.3115,-9.3116,-9.3256,-9.3176,-9.326,-9.3401,-9.3434,-9.3469,-9.3743,-9.3677,-9.3769,-9.3925,-9.4027,-9.406,-9.4089,-9.4186,-9.4222,-9.379,-9.379,-9.3791,0,-9.2989,-9.3127,-9.308,-9.3192,-9.3234,-9.3141,-9.3274,-9.3304,-9.3368,-9.34,-9.333,-9.3507,-9.3528,-9.3707,-9.3774,-9.3806,-9.3842,-9.3763,-9.4059,-9.4087,-9.4113,-9.4206,-9.4243,-9.3801,-9.38,-9.3799,-9.3798,0,-9.3292,-9.339,-9.3491,-9.3555,-9.3609,-9.3731,-9.3704,-9.3765,-9.3727,-9.372,-9.3865,-9.3888,-9.3967,-9.4007,-9.397,-9.4182,-9.4143,-9.4068,-9.3942,-9.4164,-9.425,-9.4286,-9.3817,-9.3813,-9.381,-9.3807,0,0,-9.3641,-9.3681,-9.3719,-9.3748,-9.3789,-9.3863,-9.3984,-9.406,-9.4114,-9.4163,-9.4262,-9.4387,-9.4318,-9.4359,-9.4325,-9.4416,-9.4632,-9.4329,-9.4329,-9.4384,-9.4869,-9.4924,-9.4965,-9.459,-9.4597,-9.4602,-9.4865,0,-9.3894,-9.4098,-9.4062,-9.4261,-9.4352,-9.4268,-9.4372,-9.4409,-9.4408,-9.4486,-9.4484,-9.4573,-9.4476,-9.45,-9.4586,-9.4587,-9.4728,-9.4568,-9.4682,-9.4687,-9.4672,-9.501,-9.5068,-9.5314,-9.4898,-9.4904,-9.4908,0,-9.4213,-9.4275,-9.4484,-9.4513,-9.4549,-9.4643,-9.4713,-9.4789,-9.4831,-9.4823,-9.4872,-9.4823,-9.4944,-9.482,-9.4987,-9.4879,-9.4925,-9.4933,-9.4942,-9.4949,-9.4809,-9.5025,-9.5392,-9.5429,-9.4961,-9.4956,-9.4953,0,-9.4447,-9.4582,-9.4724,-9.4752,-9.479,-9.4858,-9.4878,-9.4912,-9.4963,-9.5025,-9.5057,-9.5133,-9.5174,-9.5235,-9.5209,-9.5121,-9.5382,-9.5255,-9.5379,-9.5381,-9.5435,-9.5432,-9.5813,-9.5469,-9.5468,-9.5468,-9.5467,0,-9.473,-9.4861,-9.483,-9.4917,-9.5063,-9.5022,-9.5168,-9.5177,-9.521,-9.5299,-9.5232,-9.5318,-9.5279,-9.5363,-9.5344,-9.5486,-9.5506,-9.5504,-9.5496,-9.5508,-9.5509,-9.5535,-9.5517,-9.5477,-9.5475,-9.5473,-9.5472,0,-9.5013,-9.4997,-9.5147,-9.5173,-9.5182,-9.5288,-9.531,-9.5393,-9.5388,-9.5503,-9.5527,-9.552,-9.5616,-9.5597,-9.5702,-9.5689,-9.5867,-9.584,-9.5853,-9.5846,-9.5971,-9.5959,-9.6381,-9.6435,-9.6058,-9.6061,-9.6064,0,-9.5193,-9.5292,-9.5329,-9.5384,-9.5409,-9.5498,-9.555,-9.5516,-9.5572,-9.563,-9.5707,-9.5797,-9.5866,-9.6024,-9.6029,-9.611,-9.6083,-9.6226,-9.6094,-9.6104,-9.6084,-9.6078,-9.6088,-9.6251,-9.6255,-9.6259,-9.6261,0,-9.5516,-9.5505,-9.558,-9.5656,-9.572,-9.5778,-9.5829,-9.5878,-9.5849,-9.5917,-9.6014,-9.6068,-9.6177,-9.6268,-9.6344,-9.6365,-9.631,-9.6304,-9.6336,-9.6348,-9.6351,-9.6351,-9.5922,-9.6293,-9.629,-9.6287,-9.6286,-9.6284,-9.5752,-9.5837,-9.5877,-9.5965,-9.6001,-9.6052,-9.6132,-9.6139,-9.6219,-9.6304,-9.628,-9.6391,-9.6435,-9.6532,-9.6563,-9.665,-9.6597,-9.6645,-9.6656,-9.6668,-9.6683,-9.634,-9.6664,-9.6663,-9.6662,-9.6661,-9.6661,0,-9.607,-9.6092,-9.6174,-9.6249,-9.632,-9.6264,-9.6319,-9.6382,-9.648,-9.6525,-9.6596,-9.671,-9.6799,-9.6813,-9.6898,-9.6966,-9.6943,-9.6989,-9.6982,-9.6988,-9.6726,-9.6688,-9.7006,-9.7006,-9.7006,-9.7006,-9.7006,-9.7006,-9.6243,-9.6384,-9.6379,-9.6538,-9.656,-9.6668,-9.6705,-9.6752,-9.6788,-9.6918,-9.6992,-9.7001,-9.7035,-9.7123,-9.7203,-9.7205,-9.7239,-9.7295,-9.7288,-9.7041,-9.7007,-9.6974,-9.6938,-9.7303,-9.7304,-9.7542,-9.7544,-9.7546]},{"header":{"parameterUnit":"m.s-1","parameterCategory":1,"la1":30.2991,"la2":30.254,"lo1":-89.0895,"lo2":-89.0444,"dy":0.0017,"dx":0.0017,"nx":28,"ny":28,"refTime":"2024-02-02T09:00:00:Z","depth":0,"parameterNumber":3,"parameterNumberName":"V-component_of_WINDS"},"data":[0,0,0,0,0,0,0,0,0,0,0,0,0,0,0,0,0,0,0,0,0,0,0,0,0,0,0,0,0,0,0,0,0,0,0,0,0,0,0,0,0,0,0,0,0,0,0,0,0,0,0,0,0,0,0,0,0,0,1.0476,1.0477,0,1.056,1.0561,1.0562,1.0582,1.0581,1.0581,1.058,1.0666,1.0669,1.0672,0,0,0,0,0,0,0,0,0,0,0,0,0,1.0338,1.034,1.0476,1.0477,1.0478,1.056,1.0561,1.0562,1.0582,1.0581,1.058,1.058,1.0665,1.0669,1.0672,0,0,0,0,0,0,0,0,0,0,0,0,0,1.0407,1.0341,1.0476,1.0498,1.0501,1.056,1.0561,1.0562,1.0582,1.0581,1.058,1.058,1.0664,1.0668,1.0672,1.0715,0,0,1.0685,1.0687,0,0,0,0,0,0,0,0,1.0403,1.0412,1.0494,1.0497,1.05,1.056,1.0544,1.0614,1.0582,1.0551,1.058,1.0579,1.0631,1.0638,1.0656,1.0719,1.0723,1.0686,1.0688,1.069,1.0691,0,0,0,0,0,0,0,1.0398,1.0409,1.0509,1.0495,1.0499,1.0505,1.0514,1.0557,1.0595,1.0554,1.0555,1.0565,1.0633,1.0652,1.0658,1.0724,1.0686,1.0689,1.0692,1.0694,1.0832,1.0833,0,0,0,0,0,0,1.0389,1.0405,1.0507,1.0512,1.0448,1.0508,1.0518,1.0541,1.0595,1.0602,1.0566,1.0566,1.0645,1.0653,1.0661,1.0718,1.069,1.0694,1.0697,1.0831,1.0832,1.0833,0,0,0,0,0,0,1.0386,1.0398,1.0503,1.0459,1.0473,1.0511,1.0537,1.0543,1.0562,1.0604,1.0611,1.0578,1.0645,1.0655,1.0703,1.0721,1.0696,1.07,1.0829,1.0831,1.0833,1.0829,0,0,0,0,0,0,1.0382,1.0397,1.0413,1.0459,1.0475,1.0542,1.0538,1.0546,1.0569,1.057,1.0617,1.0624,1.0645,1.0696,1.0707,1.0726,1.0703,1.0828,1.083,1.0832,1.0828,1.083,1.0832,0,0,0,0,0,1.0377,1.0407,1.0413,1.0425,1.0495,1.0543,1.0553,1.0576,1.0571,1.0588,1.0615,1.0622,1.0717,1.0701,1.0713,1.0734,1.0827,1.083,1.0832,1.0826,1.083,1.0832,0,0,0,0,0,0,1.0361,1.0414,1.0421,1.0467,1.0501,1.0547,1.0568,1.0578,1.0614,1.0613,1.0641,1.0652,1.0698,1.0721,1.0702,1.078,1.0772,1.0777,1.0764,1.0767,1.0769,1.0763,1.0707,0,0,0,0,0,1.0363,1.0397,1.0442,1.0478,1.0495,1.0529,1.0551,1.0566,1.0602,1.0617,1.0647,1.0683,1.0721,1.0745,1.0782,1.0831,1.0843,1.0852,1.0854,1.0856,1.086,1.0891,1.0896,1.0842,1.0842,1.0842,0,0,1.0367,1.04,1.042,1.0476,1.0504,1.054,1.054,1.0578,1.0605,1.0622,1.067,1.0694,1.0735,1.0785,1.0808,1.0805,1.0878,1.0859,1.086,1.0864,1.0894,1.0899,1.0904,1.0843,1.0843,1.0843,0,0,1.0394,1.0421,1.0456,1.0485,1.0528,1.0551,1.0559,1.0605,1.0622,1.067,1.0684,1.0718,1.0782,1.0813,1.0836,1.0878,1.0887,1.089,1.0903,1.0932,1.0937,1.0941,1.0958,1.0963,1.0894,1.0894,1.0894,0,1.0393,1.0447,1.0473,1.0511,1.0536,1.0554,1.0591,1.0618,1.0671,1.0688,1.0684,1.0768,1.0797,1.0855,1.0866,1.0884,1.0896,1.0884,1.0934,1.0938,1.0942,1.0959,1.0965,1.0894,1.0894,1.0894,1.0894,0,1.0446,1.0484,1.0507,1.0559,1.0587,1.0624,1.0657,1.0683,1.0697,1.0721,1.0771,1.0807,1.0854,1.0869,1.0882,1.093,1.0927,1.0928,1.0921,1.0947,1.0964,1.097,1.0894,1.0894,1.0894,1.0894,0,0,1.0462,1.0531,1.0539,1.0564,1.0615,1.0645,1.0684,1.073,1.0753,1.079,1.0825,1.0881,1.0883,1.091,1.0928,1.0954,1.0988,1.0952,1.0954,1.0959,1.1046,1.1046,1.1052,1.0995,1.0996,1.0997,1.1043,0,1.0496,1.0566,1.0592,1.0651,1.0688,1.0707,1.0742,1.0778,1.0802,1.0838,1.0866,1.0906,1.0905,1.0922,1.0948,1.0978,1.1006,1.0975,1.1029,1.1031,1.1019,1.1061,1.1059,1.1101,1.105,1.1051,1.1051,0,1.0544,1.0583,1.0645,1.0695,1.0711,1.0742,1.0788,1.0822,1.0864,1.088,1.0912,1.0929,1.0973,1.0963,1.1025,1.1004,1.1028,1.1046,1.1049,1.1055,1.1043,1.1069,1.1115,1.1121,1.1061,1.106,1.106,0,1.0552,1.062,1.0667,1.0688,1.0746,1.0768,1.0793,1.0835,1.0862,1.0903,1.0921,1.0966,1.0991,1.1026,1.1056,1.1045,1.1116,1.1108,1.1133,1.1132,1.1146,1.1145,1.1198,1.116,1.116,1.116,1.116,0,1.0587,1.0625,1.0672,1.0701,1.0745,1.0775,1.0818,1.0845,1.0883,1.0919,1.0938,1.0972,1.1008,1.1047,1.107,1.112,1.1131,1.1146,1.1152,1.1145,1.1143,1.1161,1.1159,1.1162,1.1161,1.1161,1.1161,0,1.0603,1.0635,1.0689,1.0741,1.0755,1.0785,1.083,1.086,1.0887,1.0932,1.0945,1.0987,1.1034,1.1067,1.1127,1.1143,1.1197,1.1202,1.1183,1.1186,1.1209,1.1207,1.1276,1.1287,1.1241,1.1241,1.1242,0,1.0623,1.0653,1.0709,1.0735,1.0761,1.0802,1.0831,1.0863,1.0892,1.0945,1.0969,1.1018,1.1058,1.1133,1.1169,1.1216,1.1223,1.1244,1.123,1.1223,1.1226,1.1224,1.1228,1.1246,1.1247,1.1247,1.1247,0,1.0657,1.0673,1.0713,1.076,1.0794,1.0833,1.0872,1.0892,1.0931,1.0964,1.1013,1.1044,1.1107,1.1156,1.1207,1.1235,1.1249,1.1251,1.126,1.1253,1.1242,1.125,1.119,1.125,1.1249,1.1249,1.1249,1.1249,1.0677,1.0706,1.0751,1.0796,1.0829,1.0866,1.0898,1.093,1.0971,1.1025,1.1042,1.1093,1.1139,1.1209,1.1238,1.1279,1.1278,1.129,1.1293,1.1296,1.1297,1.1235,1.1289,1.1289,1.1289,1.1289,1.1289,0,1.0713,1.0744,1.0786,1.084,1.0877,1.0887,1.0932,1.0962,1.1007,1.1048,1.1089,1.1147,1.1195,1.1237,1.1287,1.1313,1.1321,1.1325,1.1324,1.1331,1.1294,1.1282,1.1319,1.1319,1.1319,1.1319,1.1319,1.1318,1.0736,1.0787,1.0808,1.0877,1.0908,1.0958,1.0983,1.1019,1.1052,1.1116,1.1157,1.1184,1.1226,1.1281,1.1326,1.1338,1.1356,1.1359,1.1372,1.1337,1.1333,1.133,1.1319,1.1363,1.1363,1.1406,1.1406,1.1407]}]]